Other Public Products
Issued by NWS Grand Forks, ND

Home | Current Version | Previous Version | Text Only | Print | Product List | Glossary On
Versions: 1 2 3 4 5 6 7 8 9 10 11 12 13 14 15 16 17 18 19 20 21 22 23 24 25 26 27 28 29 30 31 32 33 34 35 36 37 38 39 40 41 42 43 44 45 46 47 48 49 50
000
FPUS83 KFGF 040010
OPUFGF
PRAIRIE TO PINES WEATHER ROUNDUP
NATIONAL WEATHER SERVICE EASTERN NORTH DAKOTA/GRAND FORKS ND
700 PM CDT MON AUG 03 2015

 **SATELLITE DATA USED TO AUGMENT SKY COVER AT AUTOMATED STATIONS**
 *****  WEATHER ACROSS EASTERN NORTH DAKOTA  *****

CITY           SKY/WX    TMP DP  RH WIND       PRES   REMARKS
GRAND FORKS    MOSUNNY   77  47  34 N8        29.90F
6HR MIN TEMP:  73; 6HR MAX TEMP:  79;

GRAND FORKS AF SUNNY     75  49  39 N9        29.91F
GRAND CITY NWS   N/A     77 N/A N/A N5          N/A
BUXTON         NOT AVBL
DEVILS LAKE    SUNNY     75  41  29 N9        29.94S
6HR MIN TEMP:  72; 6HR MAX TEMP:  79;

FARGO          SUNNY     78  45  30 NW13      29.92S
6HR MIN TEMP:  77; 6HR MAX TEMP:  80;

WAHPETON ARPT  CLEAR     77  41  27 NW9       29.93F
$$

 *****  WEATHER ACROSS CENTRAL AND WESTERN NORTH DAKOTA  *****

CITY           SKY/WX    TMP DP  RH WIND       PRES   REMARKS
JAMESTOWN      SUNNY     76  48  37 N5        29.95S
6HR MIN TEMP:  74; 6HR MAX TEMP:  78;

BISMARCK       SUNNY     80  48  32 N6        29.95F
6HR MIN TEMP:  76; 6HR MAX TEMP:  83;

MINOT          SUNNY     77  44  30 N10       29.95F
6HR MIN TEMP:  73; 6HR MAX TEMP:  80;

MINOT AFB      SUNNY     80  47  31 CALM      29.94F
6HR MIN TEMP:  79; 6HR MAX TEMP:  83;

GARRISON         N/A     78  49  35 NE5       29.96F
6HR MIN TEMP:  74; 6HR MAX TEMP:  80;

WILLISTON      SUNNY     84  41  21 E6        29.94F
6HR MIN TEMP:  76; 6HR MAX TEMP:  86;

DICKINSON      SUNNY     81  49  32 NE8       29.95F
6HR MIN TEMP:  76; 6HR MAX TEMP:  83;

HETTINGER      SUNNY     83  49  30 SE8       29.97F
6HR MIN TEMP:  77; 6HR MAX TEMP:  85;

$$

 *****  OTHER OBSERVATIONS NORTHEAST NORTH DAKOTA  *****

CITY           SKY/WX    TMP DP  RH WIND       PRES   REMARKS
WALHALLA       NOT AVBL
LANGDON        FAIR      75  45  33 NW10G17   29.94S
CAVALIER       NOT AVBL
GRAFTON        FAIR      77  48  36 NW10      29.91S
CANDO          NOT AVBL
FORT TOTTEN      N/A     78  47  33 N3        29.95S
ROLLA          NOT AVBL
RUGBY          NOT AVBL
 ***** THE ABOVE OBSERVATIONS ARE NON NWS ARE NOT QUALITY
        CONTROLLED AND MAY MIS-REPORT RAIN FOR SNOW...
$$

 *****  OTHER OBSERVATIONS SOUTHEAST NORTH DAKOTA *****

CITY           SKY/WX    TMP DP  RH WIND       PRES   REMARKS
COOPERSTOWN    NOT AVBL
VALLEY CITY    FAIR      75  48  38 N8        29.95S
OAKES          NOT AVBL
GWINNER        FAIR      77  48  36 NW7       29.95F
SHEYENNE NWR     N/A     79  47  31 N6        29.95S
BUFFALO        NOT AVBL
WYNDMERE         N/A     77  52  41 N5          N/A
 ***** THE ABOVE OBSERVATIONS ARE NON NWS ARE NOT QUALITY
       CONTROLLED AND MAY MIS-REPORT RAIN FOR SNOW...
$$

  *****  WEATHER ACROSS NORTHERN MINNESOTA  *****

CITY           SKY/WX    TMP DP  RH WIND       PRES   REMARKS
FLAG ISLAND    MOSUNNY   66  52  59 NW20      29.87R
WARROAD        MOSUNNY   68  54  60 NW9       29.89S
ROSEAU         MOSUNNY   70  55  60 NW12      29.89F
HALLOCK        SUNNY     75  45  33 NW10G16   29.89S
THF RVR FALLS  SUNNY     72  48  43 NW12      29.92F
HALSTAD        NOT AVBL
FOSSTON        SUNNY     73  45  35 NW15      29.93F
BAUDETTE       SUNNY     67  53  61 NW6       29.87F
6HR MIN TEMP:  63; 6HR MAX TEMP:  69;

WASKISH        SUNNY     70  52  52 NW9G18    29.89F
CROOKSTON      SUNNY     75  48  38 N10       29.92S
$$
  *****  WEATHER ACROSS CENTRAL AND WEST MINNESOTA  *****

CITY           SKY/WX    TMP DP  RH WIND       PRES   REMARKS
BEMIDJI        MOSUNNY   67  48  49 NW12      29.91F
PARK RAPIDS    MOSUNNY   73  48  41 NW13      29.92S
6HR MIN TEMP:  71; 6HR MAX TEMP:  76;

WADENA         SUNNY     73  50  43 NW13G18   29.92S
DETROIT LAKES  SUNNY     72  48  43 N9G16     29.94F
MOORHEAD       SUNNY     73  48  40 NW7       29.93S
FERGUS FALLS   SUNNY     75  50  41 N7        29.92S
ELBOW LAKE     FAIR      74  51  44 N8        29.93S
MORRIS MN      SUNNY     75  48  38 NW10      29.93S
STAPLES        SUNNY     72  48  43 NW10      29.91S
WHEATON        SUNNY     73  50  43 NW7       29.95S
$$
  *****  WEATHER ELSEWHERE ACROSS MINNESOTA  *****

CITY           SKY/WX    TMP DP  RH WIND       PRES   REMARKS
DULUTH         PTSUNNY   68  53  58 NW10G20   29.86S
6HR MIN TEMP:  66; 6HR MAX TEMP:  71;

INTRNTL FALLS  CLOUDY    63  54  72 NW6       29.87S
6HR MIN TEMP:  60; 6HR MAX TEMP:  66; 6HR PCP:  0.04;

ELY            RAIN      59  55  88 W9        29.85S
CLOQUET        CLOUDY    68  52  56 W9        29.87S
BRAINERD       MOSUNNY   72  50  45 NW12      29.90S
6HR MIN TEMP:  72; 6HR MAX TEMP:  77;

HIBBING        CLOUDY    66  51  58 NW16G25   29.88S
6HR MIN TEMP:  65; 6HR MAX TEMP:  69;

ALEXANDRIA     SUNNY     74  46  36 NW12      29.94F
6HR MIN TEMP:  74; 6HR MAX TEMP:  77;

SAINT CLOUD    SUNNY     76  50  40 NW12      29.89S
6HR MIN TEMP:  73; 6HR MAX TEMP:  79;

MINNEAPOLIS    MOSUNNY   76  50  40 W12       29.89S
6HR MIN TEMP:  75; 6HR MAX TEMP:  80;

$$

  *****  WEATHER ACROSS SOUTH DAKOTA  *****

CITY           SKY/WX    TMP DP  RH WIND       PRES   REMARKS
SIOUX FALLS    MOSUNNY   80  59  48 W3        29.94F
6HR MIN TEMP:  77; 6HR MAX TEMP:  82;

BROOKINGS      SUNNY     77  55  47 NW7       29.97S
WATERTOWN      SUNNY     76  51  41 NW9       29.96F
6HR MIN TEMP:  76; 6HR MAX TEMP:  79;

HURON          SUNNY     80  55  42 N6        29.93F
6HR MIN TEMP:  79; 6HR MAX TEMP:  83;

SISSETON         N/A     77  53  43 N7        29.93S
ABERDEEN       SUNNY     80  53  39 NE7       29.94F
6HR MIN TEMP:  79; 6HR MAX TEMP:  83;

MITCHELL       SUNNY     81  60  48 N7        29.94S
PIERRE         SUNNY     85  53  33 E7        29.91F
6HR MIN TEMP:  80; 6HR MAX TEMP:  86;

MOBRIDGE       SUNNY     83  52  34 E7        29.92F
RAPID CITY     PTSUNNY   81  61  50 SE13      29.94F
6HR MIN TEMP:  79; 6HR MAX TEMP:  84;

$$

  *****  SOME WEATHER IN NEARBY STATES *****

CITY           SKY/WX    TMP DP  RH WIND       PRES   REMARKS
GLASGOW MT     SUNNY     87  46  24 E9        29.89F
6HR MIN TEMP:  80; 6HR MAX TEMP:  88;

GREAT FALLS MT MOSUNNY   95  43  16 NE6       29.79F HX  91
6HR MIN TEMP:  84; 6HR MAX TEMP:  96;

CHEYENNE WY    CLOUDY    77  37  23 S15G29    30.11F
6HR MIN TEMP:  77; 6HR MAX TEMP:  86;

SCOTTSBLUFF NE PTSUNNY   89  51  27 SW9       29.94S
6HR MIN TEMP:  80; 6HR MAX TEMP:  89;

OMAHA NE       PTSUNNY   81  62  52 NE6       29.93F
6HR MIN TEMP:  75; 6HR MAX TEMP:  83; 6HR PCP: TRACE;

DES MOINES IA  MOSUNNY   80  54  40 NW8       29.93S
6HR MIN TEMP:  80; 6HR MAX TEMP:  84;

DAVENPORT IA   SUNNY     76  57  51 NW6       29.90S
6HR MIN TEMP:  76; 6HR MAX TEMP:  80;

CHICAGO IL     MOSUNNY   78  50  37 W14G21    29.86R
6HR MIN TEMP:  78; 6HR MAX TEMP:  82;

EAU CLAIRE WI  PTSUNNY   75  50  41 NW10      29.87S
6HR MIN TEMP:  74; 6HR MAX TEMP:  79;

LA CROSSE WI   SUNNY     78  52  40 NW9       29.87S
6HR MIN TEMP:  77; 6HR MAX TEMP:  82;

$$

  *****  SOME NATIONAL WEATHER *****

CITY           SKY/WX    TMP DP  RH WIND       PRES   REMARKS
LA GUARDIA NY  MOCLDY    88  58  36 S14G21    29.77R
6HR MIN TEMP:  85; 6HR MAX TEMP:  92;



USA.gov is the U.S. government's official web portal to all federal, state and local government web resources and services.